K4BLL Weather Reports


time (UTC)temp
C
wind
direction
speed
KPH
gust
KPH
rain 1hr
cm
rain 24hr
cm
rain mn
cm
humidity
%
barometer
mb
20260504214522 25 120 1.6 19.3 0.00 0.00 0.00 32 1014.3
20260504213022 25 58 0.0 8.0 0.00 0.00 0.00 28 1014.2
20260504211519 25 126 0.0 9.7 0.00 0.00 0.00 29 1014.4
20260504210018 25 135 0.0 6.4 0.00 0.00 0.00 31 1014.6
20260504204517 25 135 0.0 4.8 0.00 0.00 0.00 30 1014.7
20260504203021 26 141 0.0 3.2 0.00 0.00 0.00 31 1014.8
20260504201512 26 137 0.0 1.6 0.00 0.00 0.00 29 1014.9
20260504200010 25 298 3.2 8.0 0.00 0.00 0.00 29 1015.1
20260504194517 26 110 1.6 8.0 0.00 0.00 0.00 29 1015.2
20260504193014 26 111 1.6 8.0 0.00 0.00 0.00 31 1015.4
20260504191505 26 96 0.0 8.0 0.00 0.00 0.00 29 1015.8
20260504190002 26 125 0.0 8.0 0.00 0.00 0.00 28 1016.0
20260504184601 26 128 0.0 4.8 0.00 0.00 0.00 30 1016.2
20260504183057 26 150 3.2 11.3 0.00 0.00 0.00 27 1016.5
20260504181558 26 128 0.0 6.4 0.00 0.00 0.00 32 1016.7
20260504180143 26 127 1.6 9.7 0.00 0.00 0.00 31 1016.9
20260504173057 25 159 0.0 1.6 0.00 0.00 0.00 34 1017.1
20260504171542 24 143 0.0 1.6 0.00 0.00 0.00 35 1017.3
20260504120111 6 148 0.0 0.0 0.00 0.00 0.00 94 1018.7
20260504081532 7 158 0.0 0.0 0.00 0.00 0.00 90 1018.2
20260504050141 10 158 0.0 0.0 0.00 0.00 0.00 83 1019.0
20260504044506 10 158 0.0 0.0 0.00 0.00 0.00 82 1019.0
20260504043005 10 158 0.0 0.0 0.00 0.00 0.00 81 1019.1
20260504041503 10 158 0.0 0.0 0.00 0.00 0.00 79 1019.1
20260504040106 10 158 0.0 0.0 0.00 0.00 0.00 78 1019.0
20260504034600 11 158 0.0 0.0 0.00 0.00 0.00 77 1018.9
20260504033059 11 158 0.0 0.0 0.00 0.00 0.00 77 1018.9
20260504031628 11 158 0.0 0.0 0.00 0.00 0.00 75 1018.9
20260504030058 12 158 0.0 0.0 0.00 0.00 0.00 74 1018.8
20260504024601 12 158 0.0 0.0 0.00 0.00 0.00 72 1018.8
20260504023059 12 158 0.0 0.0 0.00 0.00 0.00 71 1018.7
20260504021610 13 158 0.0 0.0 0.00 0.00 0.00 69 1018.6
20260504020105 13 158 0.0 0.0 0.00 0.00 0.00 67 1018.3
20260504014556 13 158 0.0 0.0 0.00 0.00 0.00 64 1018.1
20260504013105 14 158 0.0 0.0 0.00 0.00 0.00 61 1017.8
20260504011557 15 158 0.0 0.0 0.00 0.00 0.00 58 1017.6
20260504010101 16 158 0.0 0.0 0.00 0.00 0.00 55 1017.5
20260504004556 16 158 0.0 0.0 0.00 0.00 0.00 52 1017.3
20260504003054 17 158 0.0 0.0 0.00 0.00 0.00 46 1017.2
20260504001608 18 158 0.0 0.0 0.00 0.00 0.00 41 1017.1
20260504000054 20 158 0.0 0.0 0.00 0.00 0.00 38 1017.1
20260503234551 20 158 0.0 0.0 0.00 0.00 0.00 35 1017.1
20260503233051 20 158 0.0 0.0 0.00 0.00 0.00 36 1017.1
20260503231554 21 158 0.0 1.6 0.00 0.00 0.00 34 1017.2
20260503230050 21 157 0.0 1.6 0.00 0.00 0.00 33 1017.2
20260503224551 21 160 0.0 1.6 0.00 0.00 0.00 33 1017.1
20260503223048 21 160 0.0 1.6 0.00 0.00 0.00 31 1017.0
20260503221546 21 147 0.0 1.6 0.00 0.00 0.00 31 1017.1
20260503220045 21 150 0.0 1.6 0.00 0.00 0.00 33 1017.2